[[{"header":{"parameterUnit":"m.s-1","parameterCategory":1,"la1":30.2991,"la2":30.254,"lo1":-89.0895,"lo2":-89.0444,"dy":0.0017,"dx":0.0017,"nx":28,"ny":28,"refTime":"2024-02-13T03:00:00:Z","depth":0,"parameterNumber":2,"parameterNumberName":"U-component_of_WINDS"},"data":[0,0,0,0,0,0,0,0,0,0,0,0,0,0,0,0,0,0,0,0,0,0,0,0,0,0,0,0,0,0,0,0,0,0,0,0,0,0,0,0,0,0,0,0,0,0,0,0,0,0,0,0,0,0,0,0,0,0,1.5972,1.5972,0,1.6011,1.6011,1.6011,1.5988,1.5987,1.5985,1.5984,1.6025,1.6027,1.6029,0,0,0,0,0,0,0,0,0,0,0,0,0,1.5879,1.5881,1.5972,1.5972,1.5973,1.601,1.6011,1.6012,1.5988,1.5986,1.5985,1.5984,1.6025,1.6027,1.603,0,0,0,0,0,0,0,0,0,0,0,0,0,1.5919,1.5882,1.5972,1.5965,1.5965,1.601,1.6011,1.6012,1.5988,1.5986,1.5985,1.5983,1.6024,1.6027,1.603,1.6084,0,0,1.604,1.6041,0,0,0,0,0,0,0,0,1.5917,1.5922,1.5966,1.5966,1.5966,1.5992,1.5993,1.6036,1.5989,1.5979,1.5984,1.5982,1.6016,1.602,1.6031,1.6086,1.6088,1.604,1.6042,1.6043,1.6044,0,0,0,0,0,0,0,1.5914,1.5921,1.5987,1.5966,1.5966,1.5961,1.5965,1.6001,1.6007,1.598,1.5978,1.5983,1.6015,1.6028,1.6031,1.6088,1.604,1.6043,1.6045,1.6046,1.6192,1.6194,0,0,0,0,0,0,1.5912,1.5918,1.5986,1.5988,1.5937,1.5964,1.5969,1.5986,1.6006,1.6008,1.5985,1.5982,1.6023,1.6028,1.6033,1.6099,1.6043,1.6046,1.6048,1.6191,1.6193,1.6195,0,0,0,0,0,0,1.591,1.5918,1.5984,1.5953,1.5961,1.5968,1.5987,1.5987,1.5999,1.601,1.6011,1.5996,1.6022,1.6028,1.6072,1.61,1.6048,1.6051,1.6188,1.6191,1.6194,1.6231,0,0,0,0,0,0,1.5907,1.5917,1.5937,1.5954,1.5963,1.6022,1.5989,1.5989,1.6005,1.6002,1.6021,1.6022,1.6021,1.6067,1.6075,1.6104,1.6053,1.6186,1.619,1.6193,1.6228,1.6235,1.6242,0,0,0,0,0,1.5904,1.5946,1.5938,1.5946,1.5988,1.6024,1.6029,1.6027,1.6007,1.6028,1.6035,1.6021,1.6096,1.6072,1.6081,1.6111,1.6184,1.6188,1.6193,1.6225,1.6234,1.6242,0,0,0,0,0,0,1.5932,1.5948,1.5939,1.5988,1.6005,1.602,1.6045,1.6036,1.6059,1.6055,1.6051,1.6056,1.6102,1.611,1.6084,1.6165,1.6137,1.6143,1.6158,1.6167,1.6174,1.6171,1.6056,0,0,0,0,0,1.5944,1.5971,1.5983,1.6025,1.6034,1.6038,1.6054,1.6051,1.6068,1.6075,1.6085,1.6103,1.6131,1.6149,1.6175,1.6229,1.6234,1.6254,1.6261,1.6266,1.6272,1.6304,1.6314,1.6209,1.6209,1.6209,0,0,1.5968,1.598,1.5998,1.6031,1.6044,1.6074,1.6044,1.6076,1.6099,1.608,1.6123,1.6131,1.6151,1.6201,1.6223,1.6209,1.6302,1.6272,1.6276,1.6279,1.6309,1.6319,1.6328,1.6212,1.6212,1.6211,0,0,1.6029,1.604,1.6077,1.6091,1.611,1.6113,1.6122,1.6139,1.6144,1.6187,1.6174,1.6201,1.6248,1.6264,1.6278,1.6346,1.6336,1.6355,1.6392,1.6423,1.6431,1.6438,1.6465,1.6474,1.6361,1.6361,1.6361,0,1.6057,1.6101,1.6097,1.6131,1.6147,1.6131,1.617,1.6183,1.6211,1.6223,1.6207,1.6267,1.6279,1.6333,1.635,1.6361,1.6373,1.6353,1.643,1.6437,1.6444,1.6469,1.6479,1.6363,1.6363,1.6362,1.6362,0,1.6136,1.6167,1.6194,1.6222,1.624,1.6276,1.6279,1.6299,1.6294,1.63,1.6344,1.6359,1.6388,1.6401,1.6396,1.6455,1.6446,1.643,1.6402,1.6456,1.648,1.649,1.6366,1.6365,1.6365,1.6364,0,0,1.6215,1.6241,1.6251,1.6265,1.6286,1.631,1.6346,1.6375,1.6394,1.6413,1.6445,1.6486,1.6472,1.6488,1.6485,1.6512,1.6569,1.6493,1.6494,1.6508,1.6637,1.665,1.6661,1.6561,1.6563,1.6565,1.6636,0,1.6278,1.6341,1.6339,1.6398,1.6428,1.6414,1.6446,1.6464,1.647,1.6497,1.6503,1.6534,1.6512,1.6522,1.6547,1.6556,1.6595,1.6551,1.6592,1.6594,1.6589,1.6673,1.6687,1.6754,1.6645,1.6647,1.6648,0,1.636,1.6384,1.6446,1.6465,1.6477,1.6506,1.6534,1.6559,1.6579,1.6582,1.6601,1.6595,1.6633,1.6603,1.6657,1.6627,1.6644,1.6651,1.6654,1.6658,1.6625,1.6682,1.6774,1.6785,1.6662,1.6661,1.666,0,1.6414,1.6461,1.6505,1.6516,1.654,1.656,1.6571,1.659,1.6608,1.6632,1.6645,1.6673,1.6689,1.6712,1.6714,1.6692,1.6769,1.6739,1.6774,1.6774,1.6792,1.6791,1.689,1.68,1.68,1.68,1.68,0,1.6486,1.6525,1.653,1.6557,1.6601,1.6599,1.6643,1.6652,1.6669,1.6698,1.6688,1.6717,1.6717,1.6746,1.6748,1.6794,1.6801,1.6805,1.6806,1.6807,1.6807,1.6819,1.6815,1.6803,1.6802,1.6801,1.6801,0,1.6554,1.6558,1.6606,1.6624,1.663,1.6662,1.6678,1.6705,1.671,1.6748,1.6757,1.6766,1.68,1.6805,1.6844,1.6846,1.6901,1.6896,1.6895,1.6894,1.693,1.6928,1.7042,1.7058,1.6956,1.6957,1.6958,0,1.66,1.663,1.6652,1.6672,1.6684,1.6714,1.6733,1.6734,1.6754,1.6781,1.6805,1.6838,1.6864,1.692,1.6931,1.6961,1.6958,1.6996,1.6962,1.6964,1.6961,1.696,1.6964,1.7003,1.7004,1.7005,1.7005,0,1.6683,1.6684,1.6712,1.6741,1.6764,1.6787,1.6808,1.6825,1.6828,1.6852,1.6887,1.6907,1.6949,1.6982,1.7013,1.7025,1.7017,1.7016,1.7026,1.7028,1.7027,1.7031,1.6914,1.7013,1.7012,1.7012,1.7011,1.7011,1.6743,1.677,1.679,1.6822,1.6838,1.6859,1.6886,1.6895,1.6924,1.6958,1.6956,1.6995,1.7017,1.7058,1.7072,1.7104,1.7091,1.7105,1.7109,1.7113,1.7118,1.7021,1.7109,1.7109,1.7109,1.7108,1.7108,0,1.6827,1.6839,1.6869,1.69,1.6925,1.6914,1.6938,1.6961,1.6995,1.7016,1.7043,1.7084,1.7117,1.7131,1.7164,1.7187,1.7184,1.7196,1.7195,1.7199,1.7126,1.7115,1.7198,1.7198,1.7198,1.7198,1.7198,1.7198,1.6873,1.6919,1.6923,1.6977,1.699,1.7028,1.7043,1.7063,1.708,1.7127,1.7154,1.7163,1.7182,1.7216,1.7247,1.725,1.7264,1.7278,1.728,1.7212,1.7203,1.7195,1.7184,1.728,1.7281,1.735,1.7351,1.7351]},{"header":{"parameterUnit":"m.s-1","parameterCategory":1,"la1":30.2991,"la2":30.254,"lo1":-89.0895,"lo2":-89.0444,"dy":0.0017,"dx":0.0017,"nx":28,"ny":28,"refTime":"2024-02-13T03:00:00:Z","depth":0,"parameterNumber":3,"parameterNumberName":"V-component_of_WINDS"},"data":[0,0,0,0,0,0,0,0,0,0,0,0,0,0,0,0,0,0,0,0,0,0,0,0,0,0,0,0,0,0,0,0,0,0,0,0,0,0,0,0,0,0,0,0,0,0,0,0,0,0,0,0,0,0,0,0,0,0,-2.4229,-2.423,0,-2.4283,-2.4283,-2.4284,-2.4342,-2.4343,-2.4344,-2.4344,-2.4396,-2.4396,-2.4397,0,0,0,0,0,0,0,0,0,0,0,0,0,-2.4175,-2.4176,-2.4229,-2.423,-2.423,-2.4282,-2.4283,-2.4284,-2.4342,-2.4343,-2.4344,-2.4345,-2.4396,-2.4396,-2.4397,0,0,0,0,0,0,0,0,0,0,0,0,0,-2.4211,-2.4176,-2.4229,-2.4266,-2.4269,-2.4282,-2.4283,-2.4284,-2.4342,-2.4343,-2.4344,-2.4345,-2.4395,-2.4396,-2.4397,-2.4377,0,0,-2.44,-2.44,0,0,0,0,0,0,0,0,-2.4209,-2.4213,-2.4259,-2.4263,-2.4267,-2.4307,-2.4283,-2.4315,-2.4341,-2.4314,-2.4344,-2.4346,-2.4365,-2.4368,-2.4376,-2.438,-2.4382,-2.44,-2.44,-2.4401,-2.4401,0,0,0,0,0,0,0,-2.4206,-2.4211,-2.425,-2.426,-2.4265,-2.4279,-2.4285,-2.429,-2.4332,-2.4317,-2.4321,-2.4327,-2.4367,-2.4375,-2.4377,-2.4383,-2.44,-2.4401,-2.4401,-2.4402,-2.4376,-2.4375,0,0,0,0,0,0,-2.4198,-2.4208,-2.4248,-2.4252,-2.4241,-2.4279,-2.4286,-2.4293,-2.4332,-2.4339,-2.4325,-2.4329,-2.4373,-2.4376,-2.4379,-2.4361,-2.4401,-2.4402,-2.4402,-2.4377,-2.4376,-2.4374,0,0,0,0,0,0,-2.4197,-2.4201,-2.4246,-2.4231,-2.4238,-2.4278,-2.4286,-2.4293,-2.4301,-2.4339,-2.4346,-2.4325,-2.4374,-2.4378,-2.4378,-2.4363,-2.4402,-2.4403,-2.4378,-2.4377,-2.4375,-2.4321,0,0,0,0,0,0,-2.4195,-2.4201,-2.4193,-2.4231,-2.4239,-2.4244,-2.4285,-2.4293,-2.4302,-2.4308,-2.434,-2.4347,-2.4375,-2.4377,-2.4379,-2.4365,-2.4403,-2.438,-2.4378,-2.4375,-2.4325,-2.4318,-2.4312,0,0,0,0,0,-2.4193,-2.4175,-2.4193,-2.4197,-2.4231,-2.4243,-2.4248,-2.4281,-2.4301,-2.4294,-2.4319,-2.4346,-2.4364,-2.4376,-2.4379,-2.4365,-2.4381,-2.4378,-2.4376,-2.4327,-2.4319,-2.4312,0,0,0,0,0,0,-2.4133,-2.418,-2.4201,-2.4194,-2.4214,-2.4253,-2.4245,-2.4271,-2.4285,-2.429,-2.433,-2.4337,-2.4332,-2.4349,-2.4361,-2.4349,-2.4377,-2.4374,-2.4339,-2.4331,-2.4325,-2.4321,-2.4404,0,0,0,0,0,-2.4119,-2.4126,-2.4167,-2.4157,-2.4166,-2.4204,-2.4211,-2.4235,-2.4258,-2.4266,-2.4291,-2.4311,-2.4321,-2.4327,-2.4339,-2.4327,-2.4336,-2.4319,-2.4313,-2.4308,-2.4305,-2.4303,-2.4297,-2.4365,-2.4365,-2.4365,0,0,-2.409,-2.4117,-2.4118,-2.4146,-2.4164,-2.4171,-2.4211,-2.4215,-2.422,-2.4266,-2.4269,-2.4288,-2.4313,-2.4308,-2.4307,-2.4321,-2.4289,-2.4304,-2.43,-2.4301,-2.43,-2.4293,-2.4287,-2.4363,-2.4364,-2.4364,0,0,-2.4041,-2.4061,-2.4057,-2.4075,-2.4104,-2.413,-2.4129,-2.4164,-2.4179,-2.4183,-2.4218,-2.4225,-2.4241,-2.4259,-2.4269,-2.423,-2.4256,-2.4232,-2.42,-2.4197,-2.4191,-2.4187,-2.4174,-2.4169,-2.423,-2.423,-2.423,0,-2.4,-2.4012,-2.405,-2.4054,-2.4065,-2.411,-2.4105,-2.4121,-2.4151,-2.4158,-2.4175,-2.4199,-2.4218,-2.4219,-2.421,-2.4217,-2.4217,-2.4229,-2.4189,-2.4185,-2.4181,-2.417,-2.4165,-2.4227,-2.4227,-2.4227,-2.4228,0,-2.3963,-2.397,-2.3963,-2.3994,-2.4005,-2.4004,-2.4042,-2.4048,-2.4072,-2.4096,-2.41,-2.4126,-2.4145,-2.4147,-2.4169,-2.4151,-2.416,-2.4182,-2.421,-2.4171,-2.4161,-2.4157,-2.4223,-2.4224,-2.4225,-2.4225,0,0,-2.3875,-2.3929,-2.3926,-2.3942,-2.3978,-2.3984,-2.3986,-2.4007,-2.4012,-2.4032,-2.4035,-2.405,-2.4072,-2.4084,-2.4109,-2.4106,-2.4076,-2.4129,-2.4131,-2.412,-2.406,-2.4043,-2.4038,-2.4093,-2.4093,-2.4092,-2.4058,0,-2.3833,-2.3841,-2.3876,-2.3873,-2.3882,-2.3925,-2.3927,-2.395,-2.3973,-2.3983,-2.4008,-2.4019,-2.4046,-2.4054,-2.4053,-2.4079,-2.4064,-2.4082,-2.4097,-2.4097,-2.409,-2.4032,-2.4014,-2.3981,-2.4054,-2.4054,-2.4053,0,-2.3784,-2.3804,-2.3802,-2.3841,-2.3846,-2.3847,-2.387,-2.3879,-2.3906,-2.3924,-2.3939,-2.3968,-2.3973,-2.4,-2.4008,-2.4019,-2.4028,-2.4042,-2.4041,-2.4044,-2.4073,-2.4034,-2.3971,-2.3966,-2.4047,-2.4047,-2.4048,0,-2.3722,-2.3748,-2.3751,-2.3763,-2.3808,-2.3808,-2.3827,-2.3855,-2.3866,-2.3886,-2.3893,-2.3912,-2.3923,-2.3937,-2.3971,-2.3987,-2.3976,-2.4005,-2.3991,-2.399,-2.3986,-2.3986,-2.3924,-2.399,-2.399,-2.399,-2.399,0,-2.3672,-2.3669,-2.3725,-2.3727,-2.3726,-2.3767,-2.3765,-2.3788,-2.3813,-2.382,-2.3858,-2.3864,-2.3908,-2.3919,-2.3945,-2.3949,-2.3953,-2.3968,-2.3975,-2.3965,-2.3963,-2.3971,-2.3974,-2.3989,-2.3989,-2.399,-2.399,0,-2.3602,-2.3639,-2.3646,-2.3689,-2.37,-2.3697,-2.3734,-2.3738,-2.3765,-2.3773,-2.3778,-2.3819,-2.3834,-2.387,-2.3893,-2.3911,-2.3909,-2.3921,-2.39,-2.3905,-2.3889,-2.3891,-2.3831,-2.3826,-2.3893,-2.3893,-2.3892,0,-2.3568,-2.3568,-2.3612,-2.362,-2.3638,-2.3651,-2.3663,-2.3704,-2.3715,-2.3747,-2.3747,-2.3766,-2.3783,-2.3806,-2.3837,-2.3856,-2.387,-2.3848,-2.3873,-2.3864,-2.3872,-2.3872,-2.3873,-2.3842,-2.3841,-2.3841,-2.384,0,-2.3504,-2.3523,-2.3539,-2.3563,-2.3577,-2.3597,-2.3619,-2.3623,-2.367,-2.368,-2.3698,-2.3711,-2.3737,-2.3756,-2.378,-2.3799,-2.3828,-2.3832,-2.383,-2.382,-2.3809,-2.3816,-2.3886,-2.3833,-2.3834,-2.3834,-2.3835,-2.3835,-2.3452,-2.3454,-2.3487,-2.3505,-2.3526,-2.3547,-2.3553,-2.3582,-2.3597,-2.3623,-2.3646,-2.3662,-2.3691,-2.3727,-2.3745,-2.3757,-2.3771,-2.3768,-2.3767,-2.3766,-2.3762,-2.3806,-2.3762,-2.3762,-2.3762,-2.3762,-2.3762,0,-2.3391,-2.3414,-2.343,-2.3462,-2.3476,-2.3503,-2.353,-2.354,-2.3554,-2.3579,-2.3596,-2.3617,-2.3636,-2.367,-2.3692,-2.3696,-2.3709,-2.37,-2.3701,-2.3705,-2.3748,-2.3748,-2.3689,-2.3689,-2.3689,-2.3689,-2.3689,-2.3689,-2.336,-2.3368,-2.3391,-2.3409,-2.3433,-2.345,-2.3463,-2.3483,-2.3504,-2.3526,-2.3542,-2.3565,-2.3595,-2.362,-2.3639,-2.3648,-2.3655,-2.3642,-2.3655,-2.3695,-2.3702,-2.3708,-2.3709,-2.3643,-2.3642,-2.3612,-2.3612,-2.3612]}]]